Location: ????????
(55.8351°N, 38.7040°E)
Time: 14:09:08
(UTC+00:00)

Cosmos 2278 Rocket - Pass Details

Date: 14 April 2024
Orbit: 839 x 846 km, 71.0° (Epoch: 24 May)

Event Time Altitude Azimuth Distance (km) Brightness Sun altitude
Rises 00:10:12 0° 324° (NW) 3,421 5.5 -16.3°
Reaches altitude 10° 00:12:40 10° 322° (NW) 2,482 4.7 -16.0°
Maximum altitude 00:18:18 65° 242° (WSW) 934 2.2 -15.5°
Drops below altitude 10° 00:23:53 10° 162° (SSE) 2,466 4.4 -14.9°
Sets 00:26:20 0° 160° (SSE) 3,397 5.1 -14.7°
